星链-31997 (STARLINK-31997)

导读

STARLINK-31997是美国太空探索技术公司(SpaceX)于2024年7月28日发射的星链卫星,属于Starlink Group 9-4任务批次,是第二代迷你版星链卫星。此次发射由编号B1071.17的一级复用猎鹰9号火箭执行,在加州范登堡发射场成功升空,火箭一级完成第17次回收,卫星顺利入轨部署。该卫星是星链互联网星座的组成部分,将为全球提供高速低延迟宽带互联网服务。

Basic Information
目录编号:
60288
目录名称:
STARLINK-31997
国际标识:
2024-132L
轨道中心:
EARTH
卫星名称:
星链-31997 (STARLINK-31997)
卫星全名:
星链-31997 (STARLINK-31997)
卫星状态:
在轨 (已飞行690 天)
发射日期:
2024-07-28 UTC
国别 :
美国 (US)
星等 :
--
Orbit Information
数据来源 国际轨道数据
星历时间: 2026-06-17T22:41:38+0800
11小时前
查看轨道信息
半长轴: 6853.393km
偏心率: 0.0001164
轨道倾角: 53.162°
近地点辐角 92.140°
升交点赤经 307.968°
平近点角 267.973°
近地点: 474.458km
远地点: 476.054km
周期: 94.106分钟
每日圈数: 15.301863
Detailed Information
卫星平台:
Starlink v2.0 mini
运营商:
太空探索技术公司
运营商所在国:
美国
制造商(研发单位):
太空探索技术公司
制造商所在国:
美国
使用方式:
暂无
Satellite Introduction
星链(Starlink)计划是由太空探索技术公司(SpaceX)提出的一个巨型低轨卫星互联网星座项目,计划在2019年至2024年间在太空搭建由约1.2万颗卫星组成的“星链”网络,其中1584颗将部署在地球上空550千米处的近地轨道,并从2020年开始工作。该卫星仍在工作。
2D Orbit Map
3D Orbit Map
Orbit Altitude Analysis Chart
Orbit Inclination Analysis Chart
Orbit Comprehensive Analysis Chart
View Comprehensive Chart